Regional Weather Roundup
Issued by NWS

Home | Current Version | Previous Version | Text Only | Print | Product List | Glossary Off
Versions: 1 2 3 4 5 6 7 8 9 10 11 12 13 14 15 16 17 18 19 20 21 22 23 24 25 26 27 28 29 30 31 32 33 34 35 36 37 38 39 40 41 42 43 44 45 46 47 48 49 50

000
ASUS43 KDTX 310901
RWRMI
MICHIGAN HOURLY REGIONAL WEATHER ROUNDUP
NATIONAL WEATHER SERVICE DETROIT/PONTIAC MI
500 AM EDT FRI JUL 31 2015

NOTE: "FAIR" INDICATES FEW OR NO CLOUDS BELOW 12,000 FEET WITH NO
SIGNIFICANT WEATHER AND/OR OBSTRUCTION TO VISIBILITY.

MIZ047>049-052>055-059>063-066>070-074>076-081>083-311000-
SOUTHEAST LOWER MICHIGAN

CITY           SKY/WX    TMP DP  RH WIND       PRES   REMARKS
ADRIAN         CLEAR     65  58  78 W6        29.98F
ALMA           CLEAR     64  60  89 SW6       29.94S
ANN ARBOR      CLEAR     65  58  78 W7        29.96S
BAD AXE        CLEAR     60  57  91 SW5       29.91S
CARO           CLEAR     59  57  94 CALM      29.91F
DETROIT CITY   CLEAR     70  57  63 W7        29.94S
DETROIT        PTCLDY    67  59  75 SW5       29.96S
FLINT          CLEAR     66  58  75 SW5       29.94S
GROSSE ILE     CLEAR     68  61  77 W5        29.94S
HILLSDALE      CLEAR     67  59  75 W6        30.00F
HOWELL         CLEAR     63  58  85 W7        29.96F

CITY           SKY/WX    TMP DP  RH WIND       PRES   REMARKS
JACKSON        CLEAR     63  57  81 SW3       29.98F
LAMBERTVILLE   CLEAR     67  58  72 W5        29.97F
LANSING        CLEAR     65  58  78 W3        29.97S
LAPEER         FAIR      65  59  80 W5        29.94S
MASON          CLEAR     63  57  81 SW3       29.97S
MONROE         CLEAR     64  58  81 W5        29.95S
MT. CLEMENS    CLEAR     69  59  71 SW7       29.91S
PONTIAC        CLEAR     65  59  81 W6        29.95S
PORT HOPE        N/A     64  60  87 SW6       29.87S
PORT HURON     CLEAR     63  59  88 CALM      29.92S
TRI CITIES     CLEAR     65  59  81 SW8       29.92S
MIDLAND        FAIR      60  57  91 CALM      29.91S
TROY           CLEAR     70  58  65 W7        29.95F
SAGINAW HB     CLEAR     63  59  88 SW7       29.91S
$$
MIZ043>046-050>051-056>058-064>065-071>073-077>080-311000-
SOUTHWEST LOWER MICHIGAN

CITY           SKY/WX    TMP DP  RH WIND       PRES   REMARKS
BATTLE CREEK   CLEAR     67  59  75 W7        29.99F
BENTON HARBOR  CLEAR     72  62  71 W9        30.00S
BIG RAPIDS     CLEAR     59  58  94 CALM      29.94S
COLDWATER      CLEAR     61  57  87 W5        30.00S
FREMONT        FAIR      62  61  97 CALM      29.95S
HOLLAND        CLEAR     68  61  78 W5        29.99S
GRAND RAPIDS   CLEAR     65  60  84 SW7       29.97S
IONIA          FAIR      64  58  83 W7        29.95F
KALAMAZOO      CLEAR     67  58  72 CALM      29.99F
LUDINGTON      CLEAR     71  63  75 W6        29.92F
MARSHALL       CLEAR     63  57  83 CALM      29.98F
MOUNT PLEASANT CLEAR     65  59  80 SW6       29.92S
MUSKEGON         N/A     70  61  73 W10       29.96S
SOUTH HAVEN    CLEAR     71  63  76 W5        29.99S
$$
MIZ016>042-311000-
NORTHERN LOWER MICHIGAN

CITY           SKY/WX    TMP DP  RH WIND       PRES   REMARKS
ALPENA         CLEAR     60  53  77 SW3       29.85F
BEAVER ISLAND  CLEAR     65  62  89 SW6       29.83F
BELLAIRE       CLEAR     64  58  81 W3        29.87S
CADILLAC       CLEAR     55  53  94 CALM      29.92F
CHARLEVOIX     CLEAR     69  62  80 SW12      29.88S
FRANKFORT      CLEAR     69  63  81 W6        29.89S
GAYLORD        CLEAR     62  57  83 W5        29.89F
GRAYLING       CLEAR     62  56  80 SW5       29.90F
HARBOR SPRINGS CLEAR     64  60  85 S5        29.85F
HOUGHTON LAKE  CLEAR     67  58  72 W5        29.91F
MANISTEE       CLEAR     57  54  88 NE3       29.91F
OSCODA         CLEAR     59  59  99 CALM      29.87F FOG
PELLSTON       PTCLDY    54  52  93 CALM      29.83F
ROGERS CITY    CLEAR     64  57  79 SW8       29.85S
TRAVERSE CITY  CLEAR     67  58  72 SW8       29.86F
$$
MIZ007>008-015-311000-
EASTERN UPPER MICHIGAN

CITY           SKY/WX    TMP DP  RH WIND       PRES   REMARKS
KINROSS        CLOUDY    63  57  82 SW3       29.81S
MACKINAC ISLAN MOCLDY    67  60  77 W8        29.82S
MUNISING         N/A     66  56  70 SW8       29.81S
$$
MIZ004>006-011>014-085-311000-
CENTRAL UPPER MICHIGAN

CITY           SKY/WX    TMP DP  RH WIND       PRES   REMARKS
ESCANABA       CLEAR     61  57  88 W7        29.85S
MENOMINEE      CLEAR     64  55  72 W6        29.88S
SAWYER-GWINN   CLEAR     58  55  89 W3        29.85S
$$
MIZ001>003-009>011-084-311000-
WESTERN UPPER MICHIGAN

CITY           SKY/WX    TMP DP  RH WIND       PRES   REMARKS
IRON MOUNTAIN  CLEAR     63  56  78 W7        29.87F
HOUGHTON       MOCLDY    61  55  81 W13       29.82S
COPPER HARBOR    N/A     65  53  65 NW9G24    29.79R
IRONWOOD       CLEAR     61  54  77 W7        29.88S
$$

ABBREVIATIONS USED IN REMARKS
   TC - TEMPERATURE IN CELSIUS
  WCI - WIND CHILL INDEX
   HX - HEAT INDEX
  VSB - VISIBILITY



USA.gov is the U.S. government's official web portal to all federal, state and local government web resources and services.